User: anonymous   Login
Location: Fort Wayne
(41.1310°N, 85.1290°W)
Time: 01:01:00
(UTC-04:00)
Language:

Cosmos 2219 Rocket - Orbit

View from above orbital plane
View from above orbital plane
View from above satellite
View from above satellite

Ground track
Ground track

The orbit data is extracted from the following two-line orbital elements,

1 22220U 92076B   17235.56714309 -.00000234  00000-0 -93792-4 0  9990
2 22220  70.9990 277.4191 0012657 180.9999 290.1379 14.16418521280319
Epoch (UTC): 23 August 2017 13:36:41
Eccentricity: 0.0012657
inclination: 70.9990°
perigee height: 828 km
apogee height: 846 km
right ascension of ascending node: 277.4191°
argument of perigee: 180.9999°
revolutions per day: 14.16418521
mean anomaly at epoch: 290.1379°
orbit number at epoch: 28031

The dashed part of the orbit path shows where the satellite is in the earth's shadow,  

DLR